Satellite: IO-26
Catalog number: 22826
Epoch time:      09085.47311506
Element set:     928
Inclination:      098.4205 deg
RA of node:       042.3221 deg
Eccentricity:    0.0009388
Arg of perigee:   139.1974 deg
Mean anomaly:     220.9910 deg
Mean motion:   14.29512791 rev/day
Decay rate:        2.2e-07 rev/day^2
Epoch rev:           80819
Checksum:              305

Satellite: GO-32
Catalog number: 25397
Epoch time:      09084.61888741
Element set:    0853
Inclination:      098.3345 deg
RA of node:       111.4089 deg
Eccentricity:    0.0001948
Arg of perigee:   111.8661 deg
Mean anomaly:     248.2736 deg
Mean motion:   14.23156405 rev/day
Decay rate:        2.0e-08 rev/day^2
Epoch rev:           55624
Checksum:              312

Satellite: NO-44
Catalog number: 26931
Epoch time:      09084.88888789
Element set:    0131
Inclination:      067.0513 deg
RA of node:       278.9432 deg
Eccentricity:    0.0005158
Arg of perigee:   263.9205 deg
Mean anomaly:     096.1286 deg
Mean motion:   14.29552260 rev/day
Decay rate:       2.02e-06 rev/day^2
Epoch rev:           39067
Checksum:              329

Satellite: SO-50
Catalog number: 27607
Epoch time:      09085.33910921
Element set:     845
Inclination:      064.5569 deg
RA of node:       276.7131 deg
Eccentricity:    0.0075807
Arg of perigee:   223.6419 deg
Mean anomaly:     135.8698 deg
Mean motion:   14.71423505 rev/day
Decay rate:       2.23e-06 rev/day^2
Epoch rev:           33648
Checksum:              323

Satellite: CO-55
Catalog number: 27844
Epoch time:      09084.53174748
Element set:     541
Inclination:      098.7160 deg
RA of node:       094.8738 deg
Eccentricity:    0.0010613
Arg of perigee:   028.9025 deg
Mean anomaly:     331.2736 deg
Mean motion:   14.20628248 rev/day
Decay rate:        3.8e-07 rev/day^2
Epoch rev:           29738
Checksum:              325

Satellite: CO-57
Catalog number: 27848
Epoch time:      09084.56809806
Element set:     487
Inclination:      098.7174 deg
RA of node:       093.9713 deg
Eccentricity:    0.0010489
Arg of perigee:   031.2323 deg
Mean anomaly:     328.9491 deg
Mean motion:   14.20431789 rev/day
Decay rate:        3.9e-07 rev/day^2
Epoch rev:           29735
Checksum:              351

Satellite: AO-51
Catalog number: 28375
Epoch time:      09084.96671081
Element set:    0348
Inclination:      098.0561 deg
RA of node:       099.4125 deg
Eccentricity:    0.0085061
Arg of perigee:   018.2022 deg
Mean anomaly:     342.2177 deg
Mean motion:   14.40636467 rev/day
Decay rate:        2.0e-08 rev/day^2
Epoch rev:           24897
Checksum:              310

Satellite: CO-56
Catalog number: 28941
Epoch time:      09085.44881849
Element set:     932
Inclination:      098.1314 deg
RA of node:       244.9850 deg
Eccentricity:    0.0107671
Arg of perigee:   083.3449 deg
Mean anomaly:     278.0161 deg
Mean motion:   15.76058065 rev/day
Decay rate:     6.8304e-04 rev/day^2
Epoch rev:           17418
Checksum:              346

Satellite: CP3
Catalog number: 31128
Epoch time:      09084.15062629
Element set:    0589
Inclination:      097.9979 deg
RA of node:       141.1259 deg
Eccentricity:    0.0102764
Arg of perigee:   184.9926 deg
Mean anomaly:     175.0268 deg
Mean motion:   14.52027267 rev/day
Decay rate:       -4.7e-07 rev/day^2
Epoch rev:           10270
Checksum:              321

Satellite: CP4
Catalog number: 31132
Epoch time:      09085.42826674
Element set:     567
Inclination:      098.0049 deg
RA of node:       145.9325 deg
Eccentricity:    0.0085845
Arg of perigee:   170.3750 deg
Mean anomaly:     189.9146 deg
Mean motion:   14.55193074 rev/day
Decay rate:       2.34e-06 rev/day^2
Epoch rev:           10299
Checksum:              321

Satellite: CO-65
Catalog number: 32785
Epoch time:      09085.45437319
Element set:     324
Inclination:      097.9549 deg
RA of node:       150.0737 deg
Eccentricity:    0.0014157
Arg of perigee:   303.3313 deg
Mean anomaly:     056.6547 deg
Mean motion:   14.81460451 rev/day
Decay rate:       -9.7e-07 rev/day^2
Epoch rev:            4919
Checksum:              321

/EX
SB KEPS @ AMSAT  $ORB09085.W
Orbital Elements  09085.WEATHER

HR AMSAT ORBITAL ELEMENTS FOR WEATHER SATELLITES
FROM WA5QGD FORT WORTH,TX March 26, 2009
Send Subscribe/unsubscribe to KEPS at 
http://www.amsat.org/mailman/listinfo/keps
BID: ORB09085.W
TO ALL RADIO AMATEURS BT

Satellite: NOAA-10
Catalog number: 16969
Epoch time:      09085.30141940
Element set:     549
Inclination:      098.6997 deg
RA of node:       112.3718 deg
Eccentricity:    0.0013203
Arg of perigee:   079.8405 deg
Mean anomaly:     280.4266 deg
Mean motion:   14.27383026 rev/day
Decay rate:        8.1e-07 rev/day^2
Epoch rev:           17168
Checksum:              314

Satellite: NOAA-11
Catalog number: 19531
Epoch time:      09085.32794115
Element set:     561
Inclination:      098.7818 deg
RA of node:       176.5644 deg
Eccentricity:    0.0011588
Arg of perigee:   348.8598 deg
Mean anomaly:     011.2329 deg
Mean motion:   14.14890197 rev/day
Decay rate:      -1.96e-06 rev/day^2
Epoch rev:            5780
Checksum:              338

